Regional Weather Roundup
Issued by NWS

Home | Current Version | Previous Version | Text Only | Print | Product List | Glossary Off
Versions: 1 2 3 4 5 6 7 8 9 10 11 12 13 14 15 16 17 18 19 20 21 22 23 24 25 26 27 28 29 30 31 32 33 34 35 36 37 38 39 40 41 42 43 44 45 46 47 48 49 50

000
ASUS43 KMPX 311910
RWRMN
WEATHER ROUNDUP FOR MINNESOTA
NATIONAL WEATHER SERVICE TWIN CITIES/CHANHASSEN MN
200 PM CDT TUE MAY 31 2016


NOTE: "FAIR" INDICATES FEW OR NO CLOUDS BELOW 12,000 FEET WITH NO
SIGNIFICANT WEATHER AND/OR OBSTRUCTIONS TO VISIBILITY. N/A MEANS
CURRENT SKY AND/OR WEATHER CONDITIONS ARE NOT AVAILABLE.

MNZ060>063-068>070-312000-
   Twin Cities Metro

CITY           SKY/WX    TMP DP  RH WIND       PRES   REMARKS
TWIN CITIES    CLOUDY    71  60  68 SW13      29.87S
ST PAUL        CLOUDY    70  62  76 SW9       29.87S
CRYSTAL        LGT RAIN  71  60  68 S10       29.84F
EDEN PRAIRIE   LGT RAIN  70  61  73 SW14      29.86S
SOUTH ST PAUL  PTSUNNY   70  64  82 SW5       29.87F
LAKE ELMO      CLOUDY    70  64  83 S6        29.88F
$$
MNZ001>005-007-008-013>017-022>024-027-028-312000-
   Northwest Minnesota

CITY           SKY/WX    TMP DP  RH WIND       PRES   REMARKS
BEMIDJI        CLOUDY    58  55  91 SE12      29.79S
HALLOCK        PTSUNNY   66  61  82 S13G18    29.67F
ROSEAU         CLOUDY    54  48  82 SE15G22   29.75F
WARROAD        CLOUDY    54  48  82 SE16      29.78S
THIEF RVR FALL PTSUNNY   66  55  68 S18       29.73S
CROOKSTON      MOSUNNY   66  55  68 SW17G24   29.73R
FOSSTON        MOSUNNY   64  61  88 S15G22    29.75S
DETROIT LAKES  MOSUNNY   66  48  52 SW13G20   29.79S
MOORHEAD       MOSUNNY   64  50  59 SW16G25   29.77S
PARK RAPIDS    MOSUNNY   69  55  60 SW13      29.78F
MAHNOMEN       MOCLDY    66  56  70 SW20      29.75S
$$
MNZ006-009>011-018-025>026-312000-
   North Central Minnesota

CITY           SKY/WX    TMP DP  RH WIND       PRES   REMARKS
BAUDETTE       CLOUDY    51  48  89 SE15      29.81S
FLAG ISLAND    CLOUDY    52  50  93 SE10G16   29.80F
INTL FALLS     RAIN      50  48  93 SE14      29.86S FOG
WASKISH        CLOUDY    54  52  94 E13       29.80F
BIG FORK       CLOUDY    54  50  87 SE7G17    29.84F
LONGVILLE      CLOUDY    55  54  94 SE6       29.82F
GRAND RAPIDS   CLOUDY    50  49  96 E9G17     29.86F
CRANE LAKE     RAIN      48  46  93 CALM      29.91F
ORR            LGT RAIN  50  46  87 SE5       29.85S
COOK           RAIN      50  48  93 E7        29.88S
WALKER         CLOUDY    57  55  92 S8        29.80F
$$
MNZ012-019>021-037-312000-
   Northeast Minnesota

CITY           SKY/WX    TMP DP  RH WIND       PRES   REMARKS
DULUTH         RAIN      46  44  93 E10       29.92S FOG
ELY            DRIZZLE   48  45  87 E13       29.91F
HIBBING        LGT RAIN  49  48  97 SE8       29.88S FOG
EVELETH        RAIN      50  48  93 E5        29.90S
DULUTH HARBOR  LGT RAIN  43  41  93 NE18      29.96R
TWO HARBORS    RAIN      48  43  81 NE13G22   29.93S
SILVER BAY     CLOUDY    46  43  87 NE15G23   29.95S
GRAND MARAIS     N/A     48  39  71 NE15G24   30.01F
G MARAIS ARPRT DRIZZLE   48  37  66 E12G24    30.01F
$$
MNZ029>031-032-039>041-046>048-054>057-064-312000-
   West Central Minnesota

CITY           SKY/WX    TMP DP  RH WIND       PRES   REMARKS
FERGUS FALLS   MOSUNNY   66  48  52 SW14G23   29.78R
WHEATON        SUNNY     70  52  52 SW16G25   29.83S
MORRIS         MOSUNNY   66  52  59 SW13G18   29.83S
ALEXANDRIA     SUNNY     69  50  50 W13       29.84S
ELBOW LAKE     PTSUNNY   67  51  57 SW17G25   29.83S
WADENA         MOSUNNY   66  54  63 SW15      29.80S
GLENWOOD       SUNNY     70  52  52 SW16      29.85R
APPLETON       MOSUNNY   72  48  43 W20       29.83F
BENSON         MOSUNNY   70  48  46 W15       29.85S
ORTONVILLE     SUNNY     70  45  40 W20G26    29.84R
MADISON        SUNNY     72  48  43 W17G23    29.85S
WILLMAR        FAIR      72  57  60 W14G20    29.87S
$$
MNZ033>034-036-042>043-049>051-058-059-312000-
   Central Minnesota

CITY           SKY/WX    TMP DP  RH WIND       PRES   REMARKS
ST CLOUD       CLOUDY    68  58  70 SW14      29.85S
SAUK CENTRE    MOCLDY    68  55  62 W14       29.84S
PAYNESVILLE    PTSUNNY   69  55  61 SW10      29.86S
AITKIN         CLOUDY    57  52  82 E5        29.83F
PINE RIVER     CLOUDY    59  59 100 SE5       29.85F
BRAINERD       CLOUDY    67  58  72 SW12      29.82S
STAPLES        PTSUNNY   68  54  60 SW9       29.81F
LONG PRAIRIE   FAIR      68  54  60 S13G21    29.84R
LITTLE FALLS   PTSUNNY   68  54  60 SW8       29.84S
LITCHFIELD     CLOUDY    70  61  73 W7        29.86F
BUFFALO        CLOUDY    67  59  73 SW8       29.87F
MAPLE LAKE     CLOUDY    67  60  76 SW7       29.87F
HUTCHINSON     SUNNY     70  60  72 SW8       29.88S
$$
MNZ037-044-045-052-053-312000-
   East Central Minnesota

CITY           SKY/WX    TMP DP  RH WIND       PRES   REMARKS
PRINCETON      CLOUDY    72  63  73 SW9G17    29.85S
MORA           CLOUDY    68  59  73 S13       29.86S
CAMBRIDGE      CLOUDY    72  59  64 S9        29.84S
RUSH CITY      CLOUDY    68  62  81 S8        29.86S
MOOSE LAKE     CLOUDY    45  43  93 NE6       29.88S
HINCKLEY       CLOUDY    64  63  94 E3        29.86S
CLOQUET        LGT RAIN  45  43  93 E10G17    29.91S
MCGREGOR       CLOUDY    52  50  93 E8        29.87S
$$
MNZ071>073-080-081-089-090-097-098-312000-
   Southwest Minnesota

CITY           SKY/WX    TMP DP  RH WIND       PRES   REMARKS
MONTEVIDEO     SUNNY     72  50  46 W12G18    29.87F
GRANITE FALLS  SUNNY     72  53  51 SW15G21   29.88F
CANBY          SUNNY     73  47  40 W20G26    29.88S
MARSHALL       SUNNY     71  47  42 W18       29.88F
REDWOOD FALLS  MOSUNNY   72  52  49 W16G22    29.87F
OLIVIA         MOSUNNY   63  45  51 W14       29.86F
PIPESTONE      SUNNY     68  45  42 NW17      29.91S
WINDOM           N/A    N/A N/A N/A SW7       29.90F
WORTHINGTON    MOSUNNY   68  53  58 W14G21    29.92F
JACKSON        CLOUDY    68  54  60 W13       29.91F
TRACY          SUNNY     70  54  56 W10G17    29.89F
SLAYTON        SUNNY     67  48  49 W13G22    29.92F
$$
MNZ065>067-074>077-082>085-091>093-312000-
   South Central Minnesota

CITY           SKY/WX    TMP DP  RH WIND       PRES   REMARKS
MANKATO        CLOUDY    64  59  82 W16       29.89S
NEW ULM        CLOUDY    68  57  68 W16G23    29.88F
ST JAMES       CLOUDY   N/A N/A N/A SW12      29.91F
FAIRMONT       CLOUDY    63  55  77 W12       29.91S
GLENCOE        CLOUDY    69  61  76 SW9G16    29.87S
FARIBAULT      PTSUNNY   70  63  78 SW7       29.88F
OWATONNA       CLOUDY    70  63  78 W13       29.89R
WASECA         CLOUDY    68  61  77 W10       29.90F
ALBERT LEA     CLOUDY    70  61  73 W6        29.89R
$$
MNZ078>079-086>088-094>096-312000-
   Southeast Minnesota

CITY           SKY/WX    TMP DP  RH WIND       PRES   REMARKS
ROCHESTER      MOSUNNY   79  62  56 S16       29.85F
RED WING       LGT RAIN  72  66  83 NW3       29.86F
STANTON        CLOUDY    73  63  72 W9        29.86F
DODGE CENTER   CLOUDY    72  63  73 W14       29.86F
WINONA         PTSUNNY   81  59  47 S8        29.86F
AUSTIN         TSTM      70  61  73 W22       29.88R
PRESTON        PTSUNNY   77  58  52 S10       29.88F
$$
ABBREVIATIONS USED IN REMARKS
   TC - TEMPERATURES IN CELSIUS
  WCI - WIND CHILL INDEX
   HX - HEAT INDEX
  VSB - VISIBILITY
$$



USA.gov is the U.S. government's official web portal to all federal, state and local government web resources and services.